Location: Sungai Bunut
(2.6333°N, 113.7333°E)
Time: 02:02:06
(UTC+00:00)

S-56A Canister/Altair - Pass Details

Date: 10 December 2023
Orbit: 640 x 2488 km, 38.9° (Epoch: 24 February)

Event Time Altitude Azimuth Distance (km) Brightness Sun altitude
Rises 21:58:08 0° 223° (SW) 5,890 11.8 -5.6°
Reaches altitude 10° 22:02:22 10° 221° (SW) 4,687 11.3 -4.6°
Maximum altitude 22:14:45 69° 140° (SE) 1,731 9.6 -1.8°
Drops below altitude 10° 22:22:54 10° 58° (ENE) 3,186 11.2 0.1°
Sets 22:25:15 0° 56° (NE) 3,944 11.7 0.7°
